[[{"header":{"parameterUnit":"m.s-1","parameterCategory":1,"la1":30.2992,"la2":30.254,"lo1":-89.0895,"lo2":-89.0443,"dy":0.0025,"dx":0.0025,"nx":19,"ny":19,"refTime":"2026-05-08T21:00:00:Z","depth":0,"parameterNumber":2,"parameterNumberName":"U-component_of_WINDS"},"data":[0,0,0,0.5803,0.5803,0.5808,0.5808,0.5823,0.5823,0,0,0,0,0,0,0,0,0,0,0,0.5806,0.5807,0.5803,0.5803,0.5808,0.5808,0.5823,0.5823,0,0,0,0,0,0,0,0,0,0,0,0.5806,0.5807,0.5807,0.5803,0.5808,0.5808,0.5822,0.5816,0,0,0,0,0,0,0,0,0,0,0.581,0.5818,0.5807,0.5807,0.5803,0.5808,0.5808,0.5815,0.5816,0.5824,0,0.5831,0,0.5827,0.5824,0.5824,0,0,0,0.58,0.5817,0.5814,0.5807,0.5803,0.5808,0.5805,0.5816,0.5817,0.5825,0.5832,0.5832,0.5828,0.5824,0.5824,0.5877,0.5877,0,0,0.58,0.581,0.5813,0.5815,0.5814,0.5805,0.5805,0.5816,0.5824,0.5832,0.5832,0.5828,0.5825,0.5825,0.5877,0.5877,0,0,0,0.5801,0.581,0.5806,0.5814,0.5815,0.5805,0.5805,0.5824,0.5822,0.5832,0.5828,0.5825,0.5825,0.5876,0.5877,0.5906,0,0,0,0.5801,0.5811,0.5806,0.5813,0.5814,0.5819,0.5813,0.5821,0.5822,0.5828,0.5825,0.5825,0.5876,0.5876,0.5904,0.5917,0,0,0,0.5804,0.5811,0.5814,0.5814,0.5816,0.5819,0.5817,0.5821,0.582,0.5824,0.5825,0.5875,0.5876,0.5902,0.5915,0.5933,0,0,0,0.5812,0.5841,0.5814,0.5845,0.5816,0.5837,0.5817,0.5832,0.584,0.5825,0.5876,0.5877,0.5902,0.5913,0.5931,0.5949,0.5958,0,0,0.5854,0.5846,0.5863,0.584,0.5868,0.5835,0.5868,0.5865,0.5857,0.5871,0.5872,0.5904,0.5915,0.5933,0.6006,0.6013,0,0,0,0.588,0.5892,0.5897,0.5905,0.5903,0.5902,0.5893,0.5892,0.5903,0.5866,0.5916,0.5922,0.5932,0.594,0.5946,0.5954,0.5881,0.5881,0.5881,0.5955,0.5941,0.5968,0.5955,0.5962,0.5952,0.5956,0.5953,0.5939,0.5951,0.5954,0.6,0.601,0.6014,0.6022,0.5964,0.5964,0.5964,0.5964,0.6014,0.6029,0.6007,0.6025,0.6011,0.6026,0.6018,0.6006,0.6018,0.5997,0.6005,0.5981,0.6023,0.6029,0.5966,0.5966,0.5966,0.5965,0.5965,0.6061,0.6065,0.6063,0.607,0.6078,0.6064,0.6076,0.6063,0.6051,0.6059,0.606,0.606,0.6056,0.6061,0.6061,0.6061,0.6061,0.6061,0.6061,0.6109,0.6105,0.6117,0.6116,0.6118,0.6119,0.6109,0.6111,0.6109,0.6099,0.6099,0.6082,0.603,0.6016,0.6064,0.6063,0.6063,0.6063,0.6063,0.6172,0.6156,0.6173,0.6175,0.6172,0.618,0.6163,0.6167,0.6167,0.6173,0.6155,0.6118,0.611,0.6105,0.6093,0.6158,0.6158,0.6158,0.6158,0.621,0.6204,0.6218,0.6222,0.6224,0.621,0.6229,0.6221,0.6211,0.6209,0.6198,0.6183,0.6178,0.6172,0.6166,0.6154,0.6234,0.6234,0.6234,0.6248,0.6241,0.626,0.6248,0.6245,0.6243,0.626,0.6265,0.625,0.6236,0.6208,0.6205,0.6179,0.6171,0.6157,0.6147,0.6127,0,0]},{"header":{"parameterUnit":"m.s-1","parameterCategory":1,"la1":30.2992,"la2":30.254,"lo1":-89.0895,"lo2":-89.0443,"dy":0.0025,"dx":0.0025,"nx":19,"ny":19,"refTime":"2026-05-08T21:00:00:Z","depth":0,"parameterNumber":3,"parameterNumberName":"V-component_of_WINDS"},"data":[0,0,0,3.1866,3.1868,3.196,3.196,3.2075,3.2077,0,0,0,0,0,0,0,0,0,0,0,3.1842,3.1842,3.1866,3.1869,3.196,3.196,3.2075,3.2077,0,0,0,0,0,0,0,0,0,0,0,3.1841,3.1842,3.1843,3.1869,3.196,3.196,3.2075,3.2006,0,0,0,0,0,0,0,0,0,0,3.1917,3.1897,3.1842,3.1843,3.187,3.196,3.196,3.2003,3.201,3.2035,0,3.2059,0,3.207,3.2084,3.2085,0,0,0,3.1866,3.1891,3.1914,3.1844,3.187,3.1959,3.1918,3.2007,3.2016,3.2045,3.2061,3.2065,3.2072,3.2085,3.2086,3.2241,3.2242,0,0,3.1861,3.1859,3.1908,3.192,3.1909,3.1915,3.1921,3.2012,3.2029,3.2062,3.2068,3.2074,3.2086,3.2087,3.224,3.2241,0,0,0,3.1848,3.1855,3.1876,3.1915,3.1932,3.1918,3.1924,3.2024,3.2032,3.2069,3.2075,3.2087,3.2088,3.2239,3.2241,3.2281,0,0,0,3.1845,3.1848,3.1874,3.1873,3.193,3.198,3.1935,3.2025,3.2036,3.2075,3.2087,3.2089,3.2238,3.224,3.2278,3.23,0,0,0,3.1835,3.1846,3.1861,3.1873,3.1912,3.1978,3.1991,3.2028,3.204,3.2085,3.209,3.2238,3.224,3.2275,3.2296,3.2341,0,0,0,3.1822,3.1894,3.1861,3.1943,3.1911,3.2004,3.199,3.2058,3.2102,3.2087,3.2239,3.224,3.2274,3.2293,3.2338,3.2378,3.2395,0,0,3.1911,3.1904,3.1953,3.1926,3.2024,3.199,3.2092,3.2133,3.2138,3.2206,3.221,3.2279,3.2295,3.234,3.249,3.2503,0,0,0,3.198,3.2015,3.2041,3.2084,3.2119,3.215,3.2176,3.2191,3.2249,3.2174,3.2307,3.2317,3.2343,3.2363,3.2374,3.2396,3.2249,3.2249,3.2249,3.2102,3.2106,3.2187,3.2202,3.2244,3.227,3.2303,3.2328,3.2319,3.235,3.237,3.2461,3.2484,3.2492,3.2516,3.2392,3.2392,3.2392,3.2392,3.2232,3.2282,3.227,3.2343,3.2347,3.2407,3.2435,3.2426,3.2482,3.2446,3.2469,3.243,3.2507,3.2528,3.2395,3.2395,3.2394,3.2394,3.2394,3.2312,3.2337,3.2356,3.2419,3.2465,3.2477,3.2532,3.2532,3.2533,3.2556,3.2577,3.2576,3.2576,3.2566,3.2566,3.2567,3.2567,3.2567,3.2567,3.2389,3.2408,3.2456,3.2499,3.2526,3.2562,3.2589,3.2615,3.2644,3.264,3.264,3.2627,3.2514,3.2486,3.2572,3.2571,3.2571,3.257,3.257,3.2519,3.249,3.2563,3.2591,3.2641,3.2688,3.2688,3.2741,3.2762,3.2789,3.2771,3.2688,3.268,3.2671,3.2647,3.277,3.277,3.277,3.2771,3.2588,3.2584,3.2659,3.2704,3.2747,3.2755,3.2835,3.2855,3.2872,3.2885,3.2867,3.2835,3.2826,3.2824,3.2812,3.279,3.2946,3.2947,3.2947,3.2668,3.2669,3.2739,3.2757,3.2796,3.2829,3.2904,3.2953,3.2965,3.2954,3.2895,3.2887,3.2837,3.282,3.2808,3.2789,3.2749,0,0]}]]